Weather History for KMWC - January, 2013

Change the Weather History Date:

Tuesday, January 1, 2013

  Actual Average Record
Temperature  
Mean Temperature 9 °F -  
Max Temperature 15 °F 27 °F 57 °F (2008)
Min Temperature 3 °F 15 °F -12 °F (1968)
Degree Days  
Heating Degree Days 56    
Moisture  
Dew Point 1 °F    
Average Humidity 70    
Maximum Humidity 85    
Minimum Humidity 57    
Precipitation  
Precipitation 0.00 in - - ()
Sea Level Pressure  
Sea Level Pressure 30.16 in    
Wind  
Wind Speed 7 mph (WNW)    
Max Wind Speed 12 mph    
Max Gust Speed 16 mph    
Visibility 10 miles    
Events      
Averages and records for this station are not official NWS values.
T = Trace of Precipitation, MM = Missing Value Source: NWS Daily Summary

Daily Weather History Graph

Daily Weather History Graph

Search for Another Location

Airport or City:

Trip Planner

Search our weather history database for the weather conditions in past years. The results will help you decide how hot, cold, wet, or windy it might be!

Date:

Astronomy

Jan. 01, 2013 Rise Set
Actual Time 7:23 AM CST 4:28 PM CST
Civil Twilight 6:51 AM CST 5:00 PM CST
Nautical Twilight 6:15 AM CST 5:36 PM CST
Astronomical Twilight 5:41 AM CST 6:10 PM CST
Moon 9:06 PM CST (1/1) 9:28 AM CST (1/1)
Length of Visible Light 10h 08m
Length of Day
9h 04m
Waning Gibbous, 83% of the Moon is Illuminated
Jan 1
Waning Gibbous
Jan 4
Last Quarter
Jan 11
New
Jan 18
First Quarter
Jan 26
Full

Hourly Weather History & Observations

Time (CST) Temp. Windchill Dew Point Humidity Pressure Visibility Wind Dir Wind Speed Gust Speed Precip Events Conditions
12:15 AM 12.2 °F -0.2 °F 3.2 °F 67% 30.14 in 10.0 mi NNW 9.2 mph - N/A   Clear
12:35 AM 12.2 °F -0.2 °F 3.2 °F 67% 30.14 in 10.0 mi NNW 9.2 mph - N/A   Clear
1:15 AM 10.4 °F -0.4 °F 3.2 °F 73% 30.14 in 10.0 mi NNW 6.9 mph - N/A   Clear
1:35 AM 10.4 °F 0.8 °F 3.2 °F 73% 30.14 in 10.0 mi NW 5.8 mph - N/A   Clear
1:55 AM 8.6 °F -3.7 °F 3.2 °F 79% 30.15 in 10.0 mi NW 8.1 mph - N/A   Clear
2:15 AM 8.6 °F -1.3 °F 3.2 °F 79% 30.16 in 10.0 mi NW 5.8 mph - N/A   Clear
2:35 AM 8.6 °F -1.3 °F 1.4 °F 73% 30.16 in 10.0 mi NW 5.8 mph - N/A   Clear
2:55 AM 8.6 °F 0.1 °F 1.4 °F 73% 30.16 in 10.0 mi WNW 4.6 mph - N/A   Clear
3:15 AM 6.8 °F -4.8 °F 1.4 °F 79% 30.16 in 10.0 mi NW 6.9 mph - N/A   Clear
3:35 AM 8.6 °F -1.3 °F 1.4 °F 73% 30.16 in 10.0 mi NW 5.8 mph - N/A   Clear
3:55 AM 6.8 °F -3.5 °F 1.4 °F 79% 30.16 in 10.0 mi NW 5.8 mph - N/A   Clear
4:15 AM 6.8 °F -5.9 °F 1.4 °F 79% 30.17 in 10.0 mi NW 8.1 mph - N/A   Clear
4:35 AM 6.8 °F -3.5 °F 1.4 °F 79% 30.17 in 10.0 mi WNW 5.8 mph - N/A   Clear
5:15 AM 5.0 °F -5.6 °F 1.4 °F 85% 30.17 in 10.0 mi WNW 5.8 mph - N/A   Clear
5:35 AM 5.0 °F -5.6 °F -0.4 °F 78% 30.18 in 10.0 mi WNW 5.8 mph - N/A   Clear
5:55 AM 5.0 °F -5.6 °F -0.4 °F 78% 30.19 in 10.0 mi WNW 5.8 mph - N/A   Clear
6:45 AM 5.0 °F -5.6 °F -0.4 °F 78% 30.20 in 10.0 mi WNW 5.8 mph - N/A   Clear
7:45 AM 3.2 °F -6.2 °F -0.4 °F 85% 30.22 in 10.0 mi West 4.6 mph - N/A   Clear
8:45 AM 6.8 °F -3.5 °F -0.4 °F 72% 30.22 in 10.0 mi WNW 5.8 mph - N/A   Clear
9:45 AM 10.4 °F -2.4 °F 1.4 °F 67% 30.21 in 10.0 mi NNW 9.2 mph - N/A   Clear
10:45 AM 12.2 °F 1.7 °F 3.2 °F 67% 30.20 in 10.0 mi NNW 6.9 mph - N/A   Clear
11:45 AM 14.0 °F 3.9 °F 3.2 °F 62% 30.19 in 10.0 mi NW 6.9 mph - N/A   Clear
12:45 PM 15.8 °F 5.1 °F 3.2 °F 58% 30.18 in 10.0 mi NW 8.1 mph - N/A   Clear
1:45 PM 15.8 °F 3.4 °F 3.2 °F 58% 30.17 in 10.0 mi West 10.4 mph - N/A   Clear
2:45 PM 14.0 °F 1.2 °F 1.4 °F 57% 30.16 in 10.0 mi WNW 10.4 mph - N/A   Clear
3:45 PM 12.2 °F -1.8 °F -0.4 °F 57% 30.16 in 10.0 mi West 11.5 mph 16.1 mph N/A   Clear
4:45 PM 12.2 °F 0.7 °F -0.4 °F 57% 30.15 in 10.0 mi West 8.1 mph - N/A   Clear
5:45 PM 10.4 °F -0.4 °F -0.4 °F 62% 30.15 in 10.0 mi West 6.9 mph - N/A   Clear
6:45 PM 8.6 °F -1.3 °F -0.4 °F 67% 30.15 in 10.0 mi WSW 5.8 mph - N/A   Clear
7:45 PM 8.6 °F -2.6 °F 1.4 °F 73% 30.15 in 10.0 mi WSW 6.9 mph - N/A   Clear
8:15 PM 10.4 °F -2.4 °F 1.4 °F 67% 30.14 in 10.0 mi West 9.2 mph - N/A   Clear
8:35 PM 10.4 °F -3.3 °F 1.4 °F 67% 30.14 in 10.0 mi West 10.4 mph - N/A   Clear
8:45 PM 10.4 °F -2.4 °F 1.4 °F 67% 30.14 in 10.0 mi WNW 9.2 mph - N/A   Clear
8:55 PM 10.4 °F -2.4 °F 1.4 °F 67% 30.14 in 10.0 mi West 9.2 mph - N/A   Clear
9:15 PM 10.4 °F -1.5 °F 1.4 °F 67% 30.13 in 10.0 mi West 8.1 mph - N/A   Clear
9:35 PM 10.4 °F -1.5 °F 1.4 °F 67% 30.13 in 10.0 mi West 8.1 mph - N/A   Clear
9:55 PM 10.4 °F -0.4 °F -0.4 °F 62% 30.13 in 10.0 mi West 6.9 mph - N/A   Clear
10:15 PM 10.4 °F -0.4 °F 1.4 °F 67% 30.13 in 10.0 mi West 6.9 mph - N/A   Clear
10:35 PM 8.6 °F -1.3 °F 1.4 °F 73% 30.13 in 10.0 mi WSW 5.8 mph - N/A   Clear
10:55 PM 8.6 °F -2.6 °F 1.4 °F 73% 30.13 in 10.0 mi WSW 6.9 mph - N/A   Clear
11:15 PM 8.6 °F -2.6 °F 1.4 °F 73% 30.13 in 10.0 mi WSW 6.9 mph - N/A   Clear
11:35 PM 8.6 °F -2.6 °F 1.4 °F 73% 30.12 in 10.0 mi West 6.9 mph - N/A   Clear
11:55 PM 8.6 °F 0.1 °F -0.4 °F 67% 30.12 in 10.0 mi WSW 4.6 mph - N/A   Scattered Clouds